Weather History for Pickens County Airport, SC

Change the Weather History Date:

Sunday, January 26, 2014

  Actual Average Record
Temperature  
Mean Temperature 39 °F -  
Max Temperature 53 °F 53 °F 53 °F (2014)
Min Temperature 25 °F 32 °F 25 °F (2014)
Degree Days  
Heating Degree Days 26    
Moisture  
Dew Point 25 °F    
Average Humidity 56    
Maximum Humidity 83    
Minimum Humidity 36    
Precipitation  
Precipitation 0.00 in - - ()
Sea Level Pressure  
Sea Level Pressure 29.89 in    
Wind  
Wind Speed - (North)    
Max Wind Speed -    
Max Gust Speed -    
Visibility 10 miles    
Events      
Averages and records for this station are not official NWS values.
T = Trace of Precipitation, MM = Missing Value Source: NWS Daily Summary

Daily Weather History Graph

Daily Weather History Graph

Search for Another Location

Airport:

Trip Planner

Search our weather history database for the weather conditions in past years. The results will help you decide how hot, cold, wet, or windy it might be!

Date:

Astronomy

Jan. 26, 2014 Rise Set
Actual Time 7:33 AM EST 5:53 PM EST
Civil Twilight 7:06 AM EST 6:20 PM EST
Nautical Twilight 6:35 AM EST 6:51 PM EST
Astronomical Twilight 6:05 AM EST 7:21 PM EST
Moon 3:08 AM EST (1/26) 1:43 PM EST (1/26)
Length of Visible Light 11h 14m
Length of Day
10h 20m
Waning Crescent, 24% of the Moon is Illuminated
Jan 26
Waning Crescent
Jan 30
New
Feb 6
First Quarter
Feb 14
Full
Feb 22
Last Quarter

Hourly Weather History & Observations

Time (EST) Temp. Dew Point Humidity Pressure Visibility Wind Dir Wind Speed Gust Speed Precip Events Conditions
12:15 AM 31.8 °F 18.1 °F 57% 29.86 in 10.0 mi North - - N/A   Clear
12:35 AM 30.9 °F 18.3 °F 60% 29.86 in 10.0 mi North - - N/A   Clear
12:55 AM 31.5 °F 18.7 °F 59% 29.87 in 10.0 mi North - - N/A   Clear
1:15 AM 32.0 °F 19.2 °F 59% 29.88 in 10.0 mi North - - N/A   Clear
1:35 AM 32.0 °F 19.8 °F 61% 29.86 in 10.0 mi North - - N/A   Clear
1:55 AM 31.8 °F 19.9 °F 62% 29.87 in 10.0 mi North - - N/A   Clear
2:15 AM 31.6 °F 19.9 °F 62% 29.87 in 10.0 mi North - - N/A   Clear
2:35 AM 31.8 °F 20.3 °F 62% 29.87 in 10.0 mi North - - N/A   Clear
2:55 AM 31.8 °F 20.5 °F 63% 29.87 in 10.0 mi North - - N/A   Clear
3:15 AM 31.8 °F 20.8 °F 64% 29.87 in 10.0 mi North - - N/A   Clear
3:35 AM 28.8 °F 20.1 °F 70% 29.87 in 10.0 mi North - - N/A   Clear
3:55 AM 30.4 °F 21.4 °F 69% 29.87 in 10.0 mi North - - N/A   Clear
4:15 AM 29.1 °F 21.0 °F 72% 29.88 in 10.0 mi North - - N/A   Clear
4:35 AM 28.6 °F 21.2 °F 74% 29.87 in 10.0 mi North - - N/A   Clear
4:55 AM 29.8 °F 21.7 °F 72% 29.89 in 10.0 mi North - - N/A   Clear
5:15 AM 29.3 °F 21.7 °F 73% 29.88 in 10.0 mi North - - N/A   Clear
5:35 AM 29.5 °F 21.6 °F 72% 29.89 in 10.0 mi North - - N/A   Clear
5:55 AM 28.0 °F 21.4 °F 76% 29.89 in 10.0 mi North - - N/A   Clear
6:15 AM 28.0 °F 21.6 °F 77% 29.89 in 10.0 mi North - - N/A   Clear
6:35 AM 28.9 °F 21.6 °F 74% 29.90 in 10.0 mi North - - N/A   Clear
6:55 AM 25.3 °F 20.7 °F 82% 29.92 in 10.0 mi North - - N/A   Clear
7:15 AM 27.1 °F 21.4 °F 79% 29.91 in 10.0 mi North - - N/A   Clear
7:35 AM 28.2 °F 21.6 °F 76% 29.92 in 10.0 mi North - - N/A   Clear
7:55 AM 25.3 °F 20.7 °F 82% 29.92 in 10.0 mi North - - N/A   Clear
8:15 AM 26.1 °F 21.6 °F 83% 29.93 in 10.0 mi North - - N/A   Clear
8:35 AM 27.3 °F 22.1 °F 81% 29.92 in 10.0 mi North - - N/A   Clear
8:55 AM 29.3 °F 23.2 °F 78% 29.92 in 10.0 mi North - - N/A   Clear
9:15 AM 30.0 °F 23.0 °F 75% 29.93 in 10.0 mi North - - N/A   Clear
9:35 AM 33.1 °F 23.4 °F 67% 29.93 in 10.0 mi North - - N/A   Clear
9:55 AM 35.8 °F 24.1 °F 62% 29.94 in 10.0 mi North - - N/A   Clear
10:15 AM 38.3 °F 24.3 °F 57% 29.95 in 10.0 mi North - - N/A   Clear
10:35 AM 40.1 °F 23.7 °F 52% 29.95 in 10.0 mi North - - N/A   Clear
10:55 AM 43.0 °F 22.6 °F 45% 29.94 in 10.0 mi North - - N/A   Clear
11:15 AM 45.3 °F 22.1 °F 40% 29.94 in 10.0 mi North - - N/A   Clear
11:35 AM 47.7 °F 22.5 °F 37% 29.93 in 10.0 mi North - - N/A   Clear
11:55 AM 48.7 °F 23.0 °F 36% 29.92 in 10.0 mi North - - N/A   Clear
12:15 PM 49.6 °F 23.9 °F 37% 29.91 in 10.0 mi North - - N/A   Clear
12:35 PM 50.5 °F 25.2 °F 37% 29.91 in 10.0 mi North - - N/A   Clear
12:55 PM 51.1 °F 26.1 °F 38% 29.89 in 10.0 mi North - - N/A   Clear
1:15 PM 51.6 °F 26.4 °F 38% 29.88 in 10.0 mi North - - N/A   Clear
1:35 PM 52.7 °F 27.1 °F 37% 29.87 in 10.0 mi North - - N/A   Clear
1:55 PM 52.9 °F 27.5 °F 38% 29.87 in 10.0 mi North - - N/A   Clear
2:15 PM 52.2 °F 27.5 °F 39% 29.86 in 10.0 mi North - - N/A   Clear
2:35 PM 52.5 °F 28.2 °F 39% 29.85 in 10.0 mi North - - N/A   Clear
2:55 PM 53.1 °F 28.4 °F 39% 29.85 in 10.0 mi North - - N/A   Clear
3:15 PM 52.7 °F 28.4 °F 39% 29.85 in 10.0 mi North - - N/A   Clear
3:35 PM 52.9 °F 28.8 °F 40% 29.84 in 10.0 mi North - - N/A   Clear
3:55 PM 53.2 °F 28.8 °F 39% 29.84 in 10.0 mi North - - N/A   Clear
4:15 PM 53.4 °F 28.9 °F 39% 29.85 in 10.0 mi North - - N/A   Clear
4:35 PM 53.8 °F 29.1 °F 39% 29.85 in 10.0 mi North - - N/A   Clear
4:55 PM 52.7 °F 28.9 °F 40% 29.85 in 10.0 mi North - - N/A   Clear
5:15 PM 52.0 °F 28.9 °F 41% 29.86 in 10.0 mi North - - N/A   Clear
5:35 PM 50.9 °F 28.8 °F 43% 29.86 in 10.0 mi North - - N/A   Clear
5:55 PM 50.0 °F 28.9 °F 44% 29.87 in 10.0 mi North - - N/A   Clear
6:15 PM 49.3 °F 29.1 °F 46% 29.88 in 10.0 mi North - - N/A   Clear
6:35 PM 48.9 °F 29.1 °F 46% 29.88 in 10.0 mi North - - N/A   Clear
6:55 PM 48.6 °F 29.3 °F 47% 29.88 in 10.0 mi North - - N/A   Clear
7:15 PM 48.0 °F 29.3 °F 48% 29.89 in 10.0 mi North - - N/A   Clear
7:35 PM 47.5 °F 29.3 °F 49% 29.90 in 10.0 mi North - - N/A   Clear
7:55 PM 47.1 °F 29.3 °F 50% 29.89 in 10.0 mi North - - N/A   Clear
8:15 PM 46.6 °F 29.3 °F 51% 29.89 in 10.0 mi North - - N/A   Clear
8:35 PM 45.9 °F 29.3 °F 52% 29.89 in 10.0 mi North - - N/A   Clear
8:55 PM 45.9 °F 29.3 °F 52% 29.89 in 10.0 mi North - - N/A   Clear
9:15 PM 45.9 °F 29.5 °F 53% 29.90 in 10.0 mi North - - N/A   Clear
9:35 PM 45.0 °F 29.5 °F 55% 29.89 in 10.0 mi North - - N/A   Clear
9:55 PM 45.0 °F 29.3 °F 54% 29.89 in 10.0 mi North - - N/A   Clear
10:15 PM 44.1 °F 29.3 °F 56% 29.89 in 10.0 mi North - - N/A   Clear
10:35 PM 44.1 °F 29.5 °F 57% 29.90 in 10.0 mi North - - N/A   Clear
10:55 PM 42.8 °F 29.7 °F 60% 29.90 in 10.0 mi North - - N/A   Clear
11:15 PM 42.6 °F 29.7 °F 60% 29.90 in 10.0 mi North - - N/A   Clear
11:35 PM 42.1 °F 29.7 °F 61% 29.89 in 10.0 mi North - - N/A   Clear
11:55 PM 42.3 °F 29.5 °F 61% 29.89 in 10.0 mi North - - N/A   Clear